ヴィルト第4彗星

116P/Wild 4 (2022)

English version
Home page
Updated on July 24, 2022

---------------------------------------------------------------------

・ プロフィール

・ 写真集

・ 軌道要素

Epoch 2022 Jan. 21.0 TT = JDT 2459600.5
T 2022 July 16.96631 TT                                 Rudenko
q   2.1969829            (2000.0)            P               Q
n   0.15112834     Peri.  173.30601     -0.96898919     +0.24607625
a   3.4906431      Node    20.98100     -0.22952723     -0.86259388
e   0.3706080      Incl.    3.60343     -0.09152708     -0.44201614
P   6.52
From 1329 observations 2014 Oct. 31-2022 Feb. 2, mean residual 0".9.

・ 星図

・ 光度変化

        m1 = 3.5 + 5 logΔ + 25.0 log r

---------------------------------------------------------------------

軌道要素はM.P.E.C. 2022-C56に掲載されたものです。
星図はステラナビゲータ Ver.10 (アストロアーツ) で作成したものです。
光度グラフはComet for Windowsで作成したものです。

---------------------------------------------------------------------

Copyright(C) Seiichi Yoshida (comet@aerith.net). All rights reserved.